Date String (YYYY-MM-DD hh:mm:ss) UTC,Instrument flags,absolute air pressure of the measurement (hPa),sample flow rate (lpm),inlet stack bypass flow (lpm),air temperature of the measurement (°C),ambient temperature measured by the external sensor (°C),aerosol sample conditioner tube jacket temperature (°C),OPC LED temperature (°C),internal box temperature (°C),relative humidity of the measurement (%),span deviation,mass concentration of particles derived from Lorenz-Mie calculation of OPC scattering (μg/m³),mass concentration of particles derived from Lorenz-Mie calculation of OPC scattering (μg/m³),mass concentration of particles derived from Lorenz-Mie calculation of OPC scattering (μg/m³)
DateTimeUTC,F1_M11,P_M11,Q1_M11,Q2_M11,T1_M11,T2_M11,T3_M11,T4_M11,T5_M11,U1_M11,ZSPAN_M11,X2_M11,X0_M11,X1_M11
2024-04-09 02:00:00,SystemResetWarning,0827.4,4.99,000.00,024.7,023.9,000.0,033.2,026.6,007.6,0000.0,0004.28,0017.01,0003.20
2024-04-09 02:01:00,SystemResetWarning,0827.4,4.99,000.00,024.7,023.9,000.0,033.2,026.6,007.6,0000.0,0004.27,0016.36,0003.23
2024-04-09 02:02:00,SystemResetWarning,0827.4,5.01,000.00,024.7,024.0,000.0,033.2,026.6,007.7,0000.0,0004.26,0016.24,0003.25
2024-04-09 02:03:00,SystemResetWarning,0827.4,5.01,000.00,024.7,024.0,000.0,033.2,026.6,007.8,0000.0,0004.23,0015.84,0003.27
2024-04-09 02:04:00,SystemResetWarning,0827.4,4.99,000.00,024.7,024.0,000.0,033.2,026.6,007.8,0000.0,0004.30,0015.63,0003.30
2024-04-09 02:05:00,SystemResetWarning,0827.5,4.98,000.00,024.7,024.0,000.0,033.2,026.6,007.7,0000.0,0004.34,0015.45,0003.33
2024-04-09 02:06:00,SystemResetWarning,0827.7,5.01,000.00,024.7,024.0,000.0,033.2,026.6,007.6,0000.0,0004.33,0015.62,0003.35
2024-04-09 02:07:00,SystemResetWarning,0827.7,5.01,000.00,024.7,024.0,000.0,033.3,026.6,007.6,0000.0,0004.34,0015.51,0003.37
2024-04-09 02:08:00,SystemResetWarning,0827.7,5.00,000.00,024.7,024.0,000.0,033.3,026.6,007.7,0000.0,0004.34,0015.38,0003.39
2024-04-09 02:09:00,SystemResetWarning,0827.5,4.99,000.00,024.7,024.0,000.0,033.3,026.6,007.7,0000.0,0004.35,0016.17,0003.39
2024-04-09 02:10:00,SystemResetWarning,0827.5,4.98,000.00,024.7,024.0,000.0,033.3,026.6,007.7,0000.0,0004.42,0015.86,0003.42
2024-04-09 02:11:00,SystemResetWarning,0827.5,4.99,000.00,024.7,024.0,000.0,033.3,026.6,007.7,0000.0,0004.46,0016.26,0003.43
2024-04-09 02:12:00,SystemResetWarning,0827.5,5.01,000.00,024.7,024.0,000.0,033.3,026.6,007.6,0000.0,0004.48,0016.33,0003.44
2024-04-09 02:13:00,SystemResetWarning,0827.6,5.02,000.00,024.7,024.0,000.0,033.3,026.6,007.6,0000.0,0004.49,0015.99,0003.44
2024-04-09 02:14:00,SystemResetWarning,0827.5,4.99,000.00,024.7,024.0,000.0,033.3,026.6,007.6,0000.0,0004.54,0015.84,0003.45
2024-04-09 02:15:00,SystemResetWarning,0827.6,4.99,000.00,024.7,024.0,000.0,033.3,026.6,007.6,0000.0,0004.52,0017.28,0003.47
2024-04-09 02:16:00,SystemResetWarning,0827.7,5.00,000.00,024.7,024.0,000.0,033.3,026.6,007.6,0000.0,0004.60,0018.13,0003.48
2024-04-09 02:17:00,SystemResetWarning,0827.7,5.00,000.00,024.7,024.0,000.0,033.3,026.6,007.7,0000.0,0004.62,0016.68,0003.48
2024-04-09 02:18:00,SystemResetWarning,0827.7,5.00,000.00,024.7,024.0,000.0,033.3,026.6,007.7,0000.0,0004.59,0016.87,0003.48
2024-04-09 02:19:00,SystemResetWarning,0827.7,5.01,000.00,024.7,024.0,000.0,033.3,026.6,007.9,0000.0,0004.64,0017.26,0003.48
2024-04-09 02:20:00,SystemResetWarning,0827.7,5.01,000.00,024.7,024.0,000.0,033.3,026.6,007.8,0000.0,0004.69,0016.21,0003.48
2024-04-09 02:21:00,SystemResetWarning,0827.7,5.01,000.00,024.7,024.0,000.0,033.3,026.6,007.8,0000.0,0004.64,0016.39,0003.47
2024-04-09 02:22:00,SystemResetWarning,0827.7,4.99,000.00,024.7,024.0,000.0,033.3,026.6,007.8,0000.0,0004.61,0016.01,0003.47
2024-04-09 02:23:00,SystemResetWarning,0827.7,5.00,000.00,024.7,024.0,000.0,033.3,026.6,007.7,0000.0,0004.60,0016.46,0003.48
2024-04-09 02:24:00,SystemResetWarning,0827.7,5.00,000.00,024.7,024.0,000.0,033.3,026.6,007.7,0000.0,0004.62,0017.21,0003.49
2024-04-09 02:25:00,SystemResetWarning,0827.8,4.99,000.00,024.7,024.0,000.0,033.3,026.6,007.7,0000.0,0004.65,0017.61,0003.50
2024-04-09 02:26:00,SystemResetWarning,0827.8,4.99,000.00,024.7,024.0,000.0,033.3,026.6,007.7,0000.0,0004.70,0016.76,0003.50
2024-04-09 02:27:00,SystemResetWarning,0827.8,5.00,000.00,024.7,024.0,000.0,033.3,026.6,007.7,0000.0,0004.68,0015.49,0003.50
2024-04-09 02:28:00,SystemResetWarning,0827.8,5.01,000.00,024.7,024.0,000.0,033.3,026.6,007.8,0000.0,0004.66,0015.45,0003.51
2024-04-09 02:29:00,SystemResetWarning,0827.8,5.00,000.00,024.7,024.0,000.0,033.3,026.6,007.8,0000.0,0004.65,0015.25,0003.51
2024-04-09 02:30:00,SystemResetWarning,0827.8,5.01,000.00,024.7,024.0,000.0,033.2,026.6,007.7,0000.0,0004.66,0015.66,0003.52
2024-04-09 02:31:00,SystemResetWarning,0827.8,5.00,000.00,024.7,024.0,000.0,033.2,026.6,007.7,0000.0,0004.64,0015.81,0003.53
2024-04-09 02:32:00,SystemResetWarning,0827.8,4.99,000.00,024.7,023.9,000.0,033.2,026.6,007.7,0000.0,0004.71,0015.37,0003.55
2024-04-09 02:33:00,SystemResetWarning,0827.9,5.00,000.00,024.7,023.9,000.0,033.2,026.6,007.7,0000.0,0004.73,0015.68,0003.55
2024-04-09 02:34:00,SystemResetWarning,0827.9,4.99,000.00,024.7,023.9,000.0,033.2,026.6,007.7,0000.0,0004.75,0015.69,0003.55
2024-04-09 02:35:00,SystemResetWarning,0827.9,5.00,000.00,024.7,023.9,000.0,033.2,026.6,007.6,0000.0,0004.78,0014.86,0003.54
2024-04-09 02:36:00,SystemResetWarning,0828.0,5.00,000.00,024.7,023.9,000.0,033.2,026.5,007.6,0000.0,0004.78,0014.65,0003.54
2024-04-09 02:37:00,SystemResetWarning,0828.0,5.01,000.00,024.7,023.9,000.0,033.2,026.5,007.6,0000.0,0004.77,0014.50,0003.54
2024-04-09 02:38:00,SystemResetWarning,0828.1,5.00,000.00,024.7,023.9,000.0,033.2,026.6,007.7,0000.0,0004.78,0014.29,0003.53
2024-04-09 02:39:00,SystemResetWarning,0828.1,5.00,000.00,024.7,023.9,000.0,033.2,026.6,007.7,0000.0,0004.79,0014.65,0003.53
2024-04-09 02:40:00,SystemResetWarning,0828.1,5.00,000.00,024.7,023.9,000.0,033.2,026.5,007.6,0000.0,0004.83,0015.31,0003.53
2024-04-09 02:41:00,SystemResetWarning,0828.1,5.01,000.00,024.7,023.9,000.0,033.2,026.5,007.6,0000.0,0004.87,0015.22,0003.52
2024-04-09 02:42:00,SystemResetWarning,0828.1,5.01,000.00,024.7,023.9,000.0,033.2,026.5,007.6,0000.0,0004.91,0015.82,0003.53
2024-04-09 02:43:00,SystemResetWarning,0828.1,5.00,000.00,024.7,023.9,000.0,033.2,026.5,007.6,0000.0,0004.90,0016.14,0003.53
2024-04-09 02:44:00,SystemResetWarning,0828.2,4.99,000.00,024.7,023.9,000.0,033.2,026.5,007.6,0000.0,0004.91,0016.15,0003.54
2024-04-09 02:45:00,SystemResetWarning,0828.2,5.00,000.00,024.7,023.9,000.0,033.2,026.5,007.6,0000.0,0004.91,0015.03,0003.54
2024-04-09 02:46:00,SystemResetWarning,0828.2,5.00,000.00,024.7,023.9,000.0,033.2,026.5,007.5,0000.0,0004.92,0015.38,0003.56
2024-04-09 02:47:00,SystemResetWarning,0828.2,5.00,000.00,024.7,023.9,000.0,033.2,026.5,007.6,0000.0,0004.92,0016.09,0003.57
2024-04-09 02:48:00,SystemResetWarning,0828.2,5.01,000.00,024.7,023.9,000.0,033.2,026.5,007.6,0000.0,0004.90,0017.07,0003.59
2024-04-09 02:49:00,SystemResetWarning,0828.2,5.00,000.00,024.6,023.9,000.0,033.2,026.5,007.7,0000.0,0004.89,0017.78,0003.61
2024-04-09 02:50:00,SystemResetWarning,0828.3,5.00,000.00,024.6,023.9,000.0,033.2,026.5,007.6,0000.0,0004.89,0017.90,0003.62
2024-04-09 02:51:00,SystemResetWarning,0828.3,5.00,000.00,024.6,023.9,000.0,033.2,026.5,007.6,0000.0,0004.89,0017.97,0003.64
2024-04-09 02:52:00,SystemResetWarning,0828.3,5.00,000.00,024.6,023.9,000.0,033.2,026.5,007.6,0000.0,0004.89,0016.87,0003.66
2024-04-09 02:53:00,SystemResetWarning,0828.3,5.00,000.00,024.6,023.9,000.0,033.2,026.5,007.6,0000.0,0004.85,0016.61,0003.68
2024-04-09 02:54:00,SystemResetWarning,0828.3,5.00,000.00,024.6,023.9,000.0,033.2,026.5,007.5,0000.0,0004.82,0016.38,0003.68
2024-04-09 02:55:00,SystemResetWarning,0828.3,5.00,000.00,024.6,023.9,000.0,033.2,026.5,007.5,0000.0,0004.87,0015.95,0003.69
2024-04-09 02:56:00,SystemResetWarning,0828.4,5.00,000.00,024.6,023.9,000.0,033.2,026.5,007.5,0000.0,0004.87,0016.69,0003.69
2024-04-09 02:57:00,SystemResetWarning,0828.4,5.00,000.00,024.6,023.9,000.0,033.2,026.5,007.6,0000.0,0004.84,0016.18,0003.69
2024-04-09 02:58:00,SystemResetWarning,0828.4,5.00,000.00,024.6,023.8,000.0,033.2,026.5,007.5,0000.0,0004.85,0015.15,0003.69
2024-04-09 02:59:00,SystemResetWarning,0828.4,5.00,000.00,024.6,023.8,000.0,033.2,026.4,007.5,0000.0,0004.83,0013.98,0003.70
